Change the Weather History Date:

Monday, August 6, 2012

  Actual Average (KMAF) Record (KMAF)
Temperature  
Mean Temperature 88 °F 82 °F  
Max Temperature 101 °F 95 °F 107 °F (1964)
Min Temperature 76 °F 70 °F 61 °F (1975)
Cooling Degree Days 24 17  
Month to date cooling degree days 102  
Year to date cooling degree days 1484  
Since 1 June cooling degree days 1095  
Growing Degree Days 38 (Base 50)    
Moisture  
Dew Point 53 °F    
Average Humidity 32    
Maximum Humidity 57    
Minimum Humidity 16    
Precipitation  
Precipitation 0.00 in 0.06 in 1.69 in (1930)
Month to date precipitation 0.36  
Year to date precipitation 8.24  
Sea Level Pressure  
Sea Level Pressure 30.15 in    
Wind  
Wind Speed 7 mph (SE)    
Max Wind Speed 15 mph    
Max Gust Speed 21 mph    
Visibility 10 miles    
Events      
T = Trace of Precipitation, MM = Missing Value Source: NWS Daily Summary

Daily Weather History Graph

Daily Weather History Graph

Search for Another Location

Airport or City:

Trip Planner

Search our weather history database for the weather conditions in past years. The results will help you decide how hot, cold, wet, or windy it might be!

Date:

Astronomy

Aug. 06, 2012 Rise Set
Actual Time 7:07 AM CDT 8:40 PM CDT
Civil Twilight 6:41 AM CDT 9:06 PM CDT
Nautical Twilight 6:09 AM CDT 9:38 PM CDT
Astronomical Twilight 5:36 AM CDT 10:11 PM CDT
Moon 11:14 PM CDT (8/6) 11:36 AM CDT (8/6)
Length of Visible Light 14h 25m
Length of Day
13h 33m
Waning Gibbous, 78% of the Moon is Illuminated
Aug 6
Waning Gibbous
Aug 9
Last Quarter
Aug 17
New
Aug 24
First Quarter
Aug 31
Full

Hourly Weather History & Observations

Time (CDT) Temp. Heat Index Dew Point Humidity Pressure Visibility Wind Dir Wind Speed Gust Speed Precip Events Conditions
12:15 AM 86.7 °F 84.7 °F 53.8 °F 32% 30.18 in 10.0 mi ESE 8.1 mph - N/A   Clear
12:35 AM 85.8 °F 84.0 °F 53.2 °F 33% 30.18 in 10.0 mi SE 8.1 mph - N/A   Clear
12:55 AM 85.1 °F 83.3 °F 53.1 °F 33% 30.19 in 10.0 mi ESE 8.1 mph - N/A   Clear
1:15 AM 84.6 °F - 52.7 °F 33% 30.19 in 10.0 mi SE 6.9 mph - N/A   Clear
1:35 AM 84.0 °F - 52.2 °F 33% 30.19 in 10.0 mi ESE 6.9 mph - N/A   Clear
1:55 AM 83.5 °F - 52.0 °F 34% 30.19 in 10.0 mi SE 8.1 mph - N/A   Clear
2:15 AM 82.9 °F - 51.6 °F 34% 30.19 in 10.0 mi SE 10.4 mph - N/A   Clear
2:35 AM 82.6 °F - 51.3 °F 34% 30.19 in 10.0 mi SSE 6.9 mph - N/A   Clear
2:55 AM 82.2 °F - 51.3 °F 34% 30.19 in 10.0 mi South 6.9 mph - N/A   Clear
3:15 AM 81.3 °F - 51.8 °F 36% 30.19 in 10.0 mi South 5.8 mph - N/A   Clear
3:35 AM 80.6 °F - 52.2 °F 37% 30.19 in 10.0 mi South 6.9 mph - N/A   Clear
3:55 AM 80.1 °F - 52.3 °F 38% 30.20 in 10.0 mi South 8.1 mph - N/A   Clear
4:15 AM 79.7 °F - 52.9 °F 39% 30.19 in 10.0 mi South 6.9 mph - N/A   Clear
4:35 AM 79.2 °F - 54.0 °F 42% 30.20 in 10.0 mi South 5.8 mph - N/A   Clear
4:55 AM 78.8 °F - 54.9 °F 44% 30.20 in 10.0 mi South 4.6 mph - N/A   Clear
5:15 AM 78.1 °F - 55.4 °F 45% 30.20 in 10.0 mi South 5.8 mph - N/A   Clear
5:35 AM 77.5 °F - 55.8 °F 47% 30.20 in 10.0 mi South 5.8 mph - N/A   Clear
5:55 AM 77.0 °F - 55.9 °F 48% 30.20 in 10.0 mi South 4.6 mph - N/A   Clear
6:15 AM 77.0 °F - 56.8 °F 50% 30.20 in 10.0 mi South 6.9 mph - N/A   Clear
6:35 AM 77.0 °F - 57.7 °F 51% 30.20 in 10.0 mi South 4.6 mph - N/A   Clear
6:55 AM 76.5 °F - 58.5 °F 54% 30.21 in 10.0 mi South 5.8 mph - N/A   Clear
7:15 AM 76.1 °F - 59.0 °F 55% 30.21 in 10.0 mi SSW 4.6 mph - N/A   Clear
7:35 AM 76.1 °F - 59.7 °F 57% 30.21 in 10.0 mi Calm Calm - N/A   Clear
7:55 AM 76.6 °F - 60.3 °F 57% 30.22 in 10.0 mi South 3.5 mph - N/A   Clear
8:15 AM 77.5 °F - 61.0 °F 57% 30.22 in 10.0 mi SW 3.5 mph - N/A   Clear
8:35 AM 78.4 °F - 61.2 °F 55% 30.22 in 10.0 mi South 4.6 mph - N/A   Clear
8:55 AM 79.2 °F - 61.3 °F 54% 30.22 in 10.0 mi SSW 4.6 mph - N/A   Clear
9:15 AM 81.0 °F 81.8 °F 61.2 °F 51% 30.22 in 10.0 mi SSW 3.5 mph - N/A   Clear
9:35 AM 82.6 °F 82.9 °F 60.4 °F 47% 30.22 in 10.0 mi SSW 4.6 mph - N/A   Clear
9:55 AM 84.2 °F 84.0 °F 59.7 °F 43% 30.22 in 10.0 mi South 5.8 mph - N/A   Clear
10:15 AM 85.5 °F 85.0 °F 59.0 °F 41% 30.22 in 10.0 mi South 5.8 mph - N/A   Clear
10:35 AM 86.2 °F 85.4 °F 58.8 °F 39% 30.22 in 10.0 mi WSW 4.6 mph - N/A   Clear
10:55 AM 87.3 °F 86.5 °F 58.6 °F 38% 30.22 in 10.0 mi SSE 3.5 mph - N/A   Clear
11:15 AM 88.7 °F 87.5 °F 57.6 °F 35% 30.22 in 10.0 mi Calm Calm - N/A   Clear
11:35 AM 89.2 °F 87.9 °F 57.2 °F 34% 30.21 in 10.0 mi SE 6.9 mph - N/A   Clear
11:55 AM 90.1 °F 88.3 °F 55.9 °F 31% 30.21 in 10.0 mi SE 4.6 mph - N/A   Clear
12:15 PM 90.9 °F 88.9 °F 55.8 °F 30% 30.20 in 10.0 mi South 3.5 mph - N/A   Clear
12:35 PM 91.9 °F 90.0 °F 55.8 °F 29% 30.20 in 10.0 mi Calm Calm - N/A   Clear
12:55 PM 93.2 °F 91.3 °F 55.2 °F 28% 30.19 in 10.0 mi ESE 5.8 mph - N/A   Clear
1:15 PM 93.9 °F 92.0 °F 55.0 °F 27% 30.18 in 10.0 mi South 6.9 mph - N/A   Clear
1:35 PM 94.5 °F 92.3 °F 54.7 °F 26% 30.18 in 10.0 mi East 4.6 mph - N/A   Clear
1:55 PM 94.8 °F 92.8 °F 54.9 °F 26% 30.16 in 10.0 mi ENE 6.9 mph - N/A   Clear
2:15 PM 95.5 °F 93.4 °F 54.7 °F 25% 30.14 in 10.0 mi North 3.5 mph - N/A   Clear
2:35 PM 97.2 °F 95.2 °F 54.3 °F 24% 30.14 in 10.0 mi East 8.1 mph - N/A   Clear
2:55 PM 98.2 °F - 52.9 °F 22% 30.13 in 10.0 mi East 9.2 mph 18.4 mph N/A   Clear
3:15 PM 98.6 °F - 52.9 °F 21% 30.12 in 10.0 mi ESE 12.7 mph - N/A   Clear
3:35 PM 99.3 °F - 51.3 °F 20% 30.11 in 10.0 mi ESE 15.0 mph 20.7 mph N/A   Clear
3:55 PM 99.7 °F - 51.4 °F 20% 30.10 in 10.0 mi East 10.4 mph - N/A   Clear
4:15 PM 100.2 °F - 50.7 °F 19% 30.10 in 10.0 mi ESE 8.1 mph 18.4 mph N/A   Clear
4:35 PM 100.2 °F - 50.5 °F 19% 30.09 in 10.0 mi East 4.6 mph - N/A   Clear
4:55 PM 100.4 °F - 50.2 °F 18% 30.08 in 10.0 mi NE 3.5 mph 16.1 mph N/A   Clear
5:15 PM 100.8 °F - 48.9 °F 17% 30.07 in 10.0 mi East 12.7 mph 16.1 mph N/A   Clear
5:35 PM 101.1 °F - 47.7 °F 16% 30.07 in 10.0 mi NE 6.9 mph - N/A   Clear
5:55 PM 100.8 °F - 48.0 °F 17% 30.06 in 10.0 mi East 10.4 mph - N/A   Clear
6:15 PM 100.9 °F - 47.8 °F 17% 30.06 in 10.0 mi East 12.7 mph 16.1 mph N/A   Clear
6:35 PM 100.0 °F - 48.2 °F 17% 30.05 in 10.0 mi SSE 6.9 mph - N/A   Clear
6:55 PM 99.7 °F - 46.6 °F 16% 30.05 in 10.0 mi SE 9.2 mph - N/A   Clear
7:15 PM 99.3 °F - 46.9 °F 17% 30.04 in 10.0 mi ESE 10.4 mph 18.4 mph N/A   Clear
7:35 PM 98.8 °F - 47.7 °F 18% 30.04 in 10.0 mi SE 10.4 mph - N/A   Clear
7:55 PM 98.2 °F - 48.0 °F 18% 30.05 in 10.0 mi SE 10.4 mph - N/A   Clear
8:15 PM 97.5 °F - 48.4 °F 19% 30.05 in 10.0 mi ESE 10.4 mph - N/A   Clear
8:35 PM 96.6 °F - 48.6 °F 19% 30.06 in 10.0 mi SE 8.1 mph - N/A   Clear
8:55 PM 95.7 °F - 49.1 °F 20% 30.06 in 10.0 mi SE 9.2 mph - N/A   Clear
9:15 PM 94.8 °F - 49.1 °F 21% 30.06 in 10.0 mi SE 9.2 mph - N/A   Clear
9:35 PM 93.9 °F - 49.3 °F 22% 30.07 in 10.0 mi SE 10.4 mph - N/A   Clear
9:55 PM 93.0 °F - 49.5 °F 23% 30.07 in 10.0 mi SE 10.4 mph - N/A   Clear
10:15 PM 92.5 °F - 50.0 °F 23% 30.07 in 10.0 mi SE 11.5 mph - N/A   Clear
10:35 PM 91.8 °F - 50.7 °F 25% 30.08 in 10.0 mi SE 9.2 mph - N/A   Clear
10:55 PM 91.0 °F - 51.3 °F 26% 30.08 in 10.0 mi SE 9.2 mph - N/A   Clear
11:15 PM 90.1 °F - 51.6 °F 27% 30.08 in 10.0 mi SE 9.2 mph - N/A   Clear
11:35 PM 89.6 °F - 51.8 °F 27% 30.08 in 10.0 mi SE 8.1 mph - N/A   Clear
11:55 PM 88.9 °F - 52.0 °F 28% 30.08 in 10.0 mi SE 6.9 mph - N/A   Clear